User: anonymous   Login
Location: Brno
(49.2000°N, 16.6330°E)
Time: 13:43:11
(UTC+01:00)
Language:

BREEZE M DEB (TANK) - Orbit

View from above orbital plane
View from above orbital plane
View from above satellite
View from above satellite

Ground track
Ground track

The orbit data is extracted from the following two-line orbital elements,

1 28359U 04022B   16343.90240917  .00000130  00000-0  14042-4 0  9993
2 28359  49.4875 236.9429 4678474  66.1745 335.4605  6.19264524273490
Epoch (UTC): 08 December 2016 21:39:28
Eccentricity: 0.4678474
inclination: 49.4875°
perigee height: 287 km
apogee height: 12008 km
right ascension of ascending node: 236.9429°
argument of perigee: 66.1745°
revolutions per day: 6.19264524
mean anomaly at epoch: 335.4605°
orbit number at epoch: 27349

The dashed part of the orbit path shows where the satellite is in the earth's shadow,  

DLR